CZ-6A DEB

Satellite information

Favourite Embed

Satellite Type and Status

DEBRISIN ORBIT

Key statistics

Satellite CZ-6A DEB at a glance.

Uptime

494

Days in orbit

Revolutions

≈ 14.2

Per day

Orbit

LEO

Low Earth Orbit

Inclination

89.0

Latest

Satellite identification and parameters

Extended collection of information and parameters for CZ-6A DEB.

Object identification

Identified? True

Debris? True

Object name: CZ-6A DEB

International designator: 2024-140ABJ

Object number (NORAD): 61500

Object ID (CCSDS): 61500

Country: PEOPLES REPUBLIC OF CHINA (PRC)

Current information (Y/N): Y

RCS size: SMALL

Orbital parameters

Period: 101.701 minutes

Inclination: 88.9818 deg

SMA: 7217.336 km

Apoapsis: 895.327 km

Periapsis: 783.076 km

RAAN: 295.751 deg

Eccentricy: 0.00777651

Argument of periapsis: 103.0047 deg

Mean anomaly: 257.9838 deg

Mean motion: 14.15915489 rev/day

Mean motion (dot): 0.00004398 rev/day2

B* drag term: 0.0021627396 1/REarth

Two-line elements (TLE)

Creation date: Dec. 8, 2025, 11:02 a.m.

Reference frame: TEME

Reference center: EARTH

Epoch: Dec. 8, 2025, 3:26 a.m. UTC

TLE line 0: 0 CZ-6A DEB

TLE line 1: 1 61500U 24140ABJ 25342.14347769 .00004398 00000-0 21627-2 0 9994

TLE line 2: 2 61500 88.9818 295.7510 0077765 103.0047 257.9838 14.15915489 66867

Live tracking on map

Real-time ground track for satellite CZ-6A DEB.

In-orbit conjunctions

A list of the most updated potential collisions computed for object CZ-6A DEB.

Target Orbit TCA Probability of collision Miss distance Type
CZ-6A DEB LEO 2025-09-24 16:38:11 0.0001220308 83.0 (m) DEBRIS
FENGYUN 1C DEB SSO 2025-04-23 11:49:20 0.0001070679 83.0 (m) DEBRIS
SL-16 R/B LEO 2025-01-30 07:27:48 0.0001274154 885.0 (m) ROCKET BODY
CZ-4 DEB SSO 2024-12-22 20:15:44 0.00022597 811.0 (m) DEBRIS
FENGYUN 1C DEB SSO 2024-12-21 13:53:43 0.0005924 127.0 (m) DEBRIS

Associated space launch

18 Low Earth Orbit communication satellites with Ku, Q and V band payloads for the G60 constellation operated by Shanghai Spacecom Satellite Technology (SSST) with funding backed by the Shanghai local government. Initial constellation will consist of 1296 satellites by 2027 with long term plans to expand it to 12000 satellites.

CZ-6A DEB was lifted into orbit during the mission ‘Long March 6A | G60 Polar Group 01’, on board a Long March 6A space rocket.

The launch took place on Aug. 6, 2024, 6:42 a.m. from Launch Complex 9A.

For more information about the launch, click the button.

Launch to space Long March 6A | G60 Polar Group 01
Long March 6A | G60 Polar Group 01

Agency: N/A

Status: Launch Successful

Launch date: Aug. 6, 2024, 6:42 a.m. UTC

Rocket: Long March 6A

Launch pad: Launch Complex 9A

Location: Taiyuan Satellite Launch Center, People's Republic of China

...

Latest news about this satellite

News about space launch
Brightness of first Chinese broadband constellation satellites alarms astronomers

The first satellites of a Chinese broadband constellation are significantly brighter than those of Western systems, posing a new challenge for astronomers.

News about space launch
Chinese rocket stage breaks up into cloud of more than 700 pieces of space debris

HELSINKI — A Chinese Long March 6A rocket’s upper stage has fragmented into a cloud of over 700 pieces of space debris, adding to concerns about long-term orbital safety. China […]

News about space launch
China's Thousand Sails Megaconstellation Kicks Off with Dangerous Debris Field

China's Thousand Sails Megaconstellation Kicks Off with Dangerous Debris Field


Newsletter sign-up

Weekly statistics, charts and insights to help you stay on top of the space industry.